Location: Ash Shall?l al Awwal
(24.0167°N, 32.8667°E)
Time: 18:42:28
(UTC+00:00)

CSL-04 Rocket - Pass Details

Date: 02 March 2021
Orbit: 805 x 861 km, 98.9° (Epoch: 10 April)

Event Time Altitude Azimuth Distance (km) Brightness Sun altitude
Rises 16:50:47 0° 154° (SSE) 3,420 6.6 -14.2°
Reaches altitude 10° 16:53:12 10° 149° (SSE) 2,488 5.9 -14.8°
Maximum altitude 16:58:33 52° 74° (ENE) 1,055 3.8 -16.0°
Drops below altitude 10° 17:03:55 10° 359° (N) 2,490 6.2 -17.2°
Sets 17:06:20 0° 355° (N) 3,423 6.9 -17.8°
